RH
19 19 18 18 18 17 17 16 17 16 16 16 15 15 14 14 14 13 13 12 11 11 10 10 9 9 9 8 8 7 6 6 6 7 7 8 8 9 9 9 10 9 10 10 9 10 8 9 8 9 9 9 9 10 14 22 30 31 42 72 81 82 99 101 100 102 98 100 83 55 45 39 33 32 38 47 56 67 66 62 57 45 37 32 34 37 42 47
19 19 18 18 18 18 17 16 16 16 16 15 15 15 14 15 14 14 13 13 12 12 11 10 10 9 9 9 8 8 7 7 6 6 6 7 8 8 8 9 9 9 9 10 9 10 9 9 9 8 9 9 8 10 11 15 19 17 26 52 63 61 78 96 103 102 98 101 95 65 44 44 39 30 36 44 61 81 73 61 57 47 36 30 31 35 39 41
19 19 18 18 17 17 16 16 16 15 15 15 15 14 14 14 14 14 13 13 13 12 12 11 11 10 10 10 9 9 8 8 7 6 6 6 7 7 8 8 8 9 9 9 9 9 9 9 9 8 8 8 9 8 7 18 26 25 23 27 46 46 46 82 103 101 101 100 99 79 48 42 41 33 36 44 66 90 77 59 57 49 37 28 29 33 35 37
20 19 19 18 18 17 16 16 15 15 15 14 14 14 14 14 13 14 13 13 13 12 12 11 11 11 10 10 9 10 9 9 8 7 7 6 7 6 7 8 7 9 8 9 9 9 10 9 9 8 9 8 8 9 6 12 12 12 19 24 40 38 44 86 101 100 105 99 105 91 52 41 44 36 38 48 70 85 67 54 55 50 40 27 26 30 32 35
21 20 20 19 18 18 17 16 16 15 15 14 14 14 14 13 13 13 12 12 12 12 12 11 12 11 11 10 10 10 9 9 9 8 8 6 7 6 6 7 7 8 8 9 8 9 9 8 10 8 9 8 7 9 7 8 7 7 11 16 30 44 74 103 99 101 104 97 105 86 49 51 53 38 41 52 75 89 64 52 55 48 44 29 24 29 28 32
21 21 20 19 19 18 18 17 17 16 15 15 14 14 13 13 13 12 12 12 11 11 11 11 11 11 11 10 10 10 10 10 9 9 8 8 7 7 7 6 7 8 7 8 8 9 9 8 9 8 8 9 8 8 8 8 7 8 5 12 40 59 77 99 101 101 99 98 104 78 41 48 57 44 46 55 78 93 64 53 56 46 46 33 23 27 26 29
22 21 21 20 20 19 19 19 18 18 17 16 15 15 14 14 13 12 12 11 11 11 10 10 10 10 10 10 10 10 10 10 10 9 9 9 8 7 7 7 7 7 7 8 7 7 8 8 8 8 8 8 9 8 8 9 7 9 6 8 32 42 43 68 95 101 96 98 99 76 42 43 64 59 59 70 86 95 68 54 56 45 45 38 24 24 25 27
23 23 22 22 22 21 21 20 19 19 18 18 17 16 16 15 14 14 13 12 12 11 10 10 9 10 9 10 10 10 10 10 10 10 9 9 9 9 8 7 7 7 8 7 8 8 7 8 7 8 8 7 9 8 7 10 10 9 7 7 12 17 19 35 73 98 96 95 89 64 34 32 51 57 75 95 98 102 78 54 54 47 45 42 27 23 25 25
25 25 24 24 23 22 22 20 19 19 18 18 18 17 17 16 16 15 14 13 13 12 11 10 10 10 9 9 9 9 9 9 10 9 9 9 9 9 8 8 8 7 8 7 8 8 7 7 7 7 8 8 7 8 8 8 10 8 7 9 7 12 17 14 39 64 66 75 74 50 33 30 35 44 74 96 97 106 88 55 53 49 45 46 33 23 25 24
26 26 25 24 23 22 21 20 20 19 19 18 18 17 17 16 16 15 15 14 13 13 12 11 11 10 9 9 9 9 9 9 10 9 9 9 9 9 9 9 8 8 8 8 8 8 8 7 7 7 7 8 7 7 8 7 8 8 7 7 10 18 19 16 24 26 26 45 51 41 36 34 40 52 69 79 83 99 95 69 57 50 45 49 40 26 24 25
27 26 26 25 23 22 21 21 21 20 19 19 18 17 16 16 15 15 14 14 13 13 12 11 11 10 10 10 9 9 9 9 9 9 9 9 9 9 9 9 8 9 8 8 8 7 8 7 6 8 6 8 8 7 7 8 7 7 8 7 9 14 11 20 29 16 14 31 39 37 31 37 58 70 75 75 74 89 102 89 68 55 48 48 46 32 24 26
28 27 26 25 24 23 22 22 21 21 20 19 18 17 17 16 15 15 14 14 13 13 12 12 11 11 10 10 10 9 9 9 9 9 9 8 9 8 9 9 8 9 9 8 9 7 8 8 7 7 7 7 7 8 7 7 8 7 8 7 7 9 6 11 19 16 19 24 24 25 26 39 55 61 76 86 84 93 102 99 84 67 53 47 49 39 26 27
28 28 27 26 25 24 23 22 21 21 20 19 19 18 17 16 16 16 15 14 14 13 13 12 11 11 10 10 10 10 9 9 9 9 9 8 9 8 8 9 9 9 9 9 9 8 8 7 8 7 8 7 6 8 7 7 8 7 7 8 7 7 8 8 8 13 19 19 18 24 35 47 54 56 75 95 98 100 98 99 97 79 60 47 48 46 31 27
29 28 28 27 26 25 24 23 22 21 20 20 19 19 19 18 17 17 16 15 14 14 13 12 12 11 11 10 10 10 10 10 10 9 9 9 8 8 8 8 9 9 9 9 8 9 8 7 8 8 8 8 8 7 6 7 7 8 7 7 8 6 13 15 10 11 21 32 27 29 39 36 45 50 58 90 104 102 102 100 98 91 75 53 45 50 39 28
29 29 28 28 27 25 24 23 22 22 21 21 20 20 20 19 18 17 16 15 14 14 13 12 12 12 11 11 10 10 9 9 10 10 10 10 9 8 9 8 9 9 8 9 8 9 8 8 8 7 9 8 9 7 7 8 5 8 7 6 8 6 10 11 10 11 24 44 29 25 46 29 22 28 34 80 108 102 104 102 99 100 92 69 48 48 44 32
30 29 29 28 27 25 24 23 23 23 22 22 21 21 20 19 19 18 17 16 15 14 13 13 12 12 12 11 11 10 10 9 9 10 10 10 10 9 9 8 8 9 8 8 9 9 8 9 8 7 9 7 8 8 7 8 6 7 6 7 8 5 10 14 15 10 16 45 37 29 64 56 27 20 21 56 96 105 101 98 101 101 100 90 62 47 47 38
30 30 30 28 27 26 25 24 24 24 23 23 23 22 21 21 20 19 18 16 16 15 14 14 13 12 12 11 11 10 10 10 9 10 10 10 11 10 10 9 9 8 8 9 8 9 8 8 9 8 8 7 8 8 8 8 7 7 6 7 7 5 11 17 23 22 15 35 43 32 54 59 30 16 21 35 71 105 104 97 103 99 100 102 77 50 47 44
31 30 30 28 27 26 26 25 25 25 24 24 24 23 22 22 21 20 19 18 17 16 15 15 14 13 13 12 12 11 10 11 10 10 10 11 11 11 11 10 10 9 8 9 8 9 9 8 9 8 8 8 7 7 7 8 7 7 7 6 7 6 8 9 13 24 21 20 36 44 49 52 31 16 25 26 48 95 105 98 99 96 97 102 86 56 45 49
31 30 30 29 28 27 27 26 26 26 25 25 25 23 23 22 23 22 21 20 18 18 17 16 15 14 14 13 12 12 11 11 11 11 10 11 11 11 12 11 11 11 9 9 9 8 8 8 9 8 8 8 7 8 7 7 7 7 8 7 7 6 7 9 5 11 24 22 29 53 66 61 38 24 28 20 34 82 103 100 95 92 94 97 89 61 45 51
31 30 30 29 29 28 28 27 27 27 26 26 25 24 24 23 24 25 23 22 20 19 18 16 15 14 13 13 13 12 12 12 12 12 11 11 11 11 12 12 11 11 11 10 9 9 8 8 8 8 8 8 8 8 7 7 7 7 8 7 7 7 5 8 10 12 24 29 27 53 86 75 33 21 25 14 33 83 104 100 92 86 87 92 89 65 48 53
31 31 31 30 30 29 29 28 28 28 27 27 26 25 25 25 27 28 26 23 21 19 18 16 15 14 14 13 13 13 12 13 13 13 12 11 12 12 12 12 12 12 12 11 10 9 8 8 8 8 8 8 8 8 7 7 7 7 7 7 7 7 7 6 9 13 17 22 19 37 82 82 38 24 26 11 28 79 104 98 92 87 80 81 82 69 54 54
31 31 31 30 31 30 29 29 28 29 29 28 27 27 26 27 29 29 28 25 22 21 19 17 15 15 15 14 13 13 13 13 13 13 13 13 12 12 12 12 12 12 12 11 10 10 9 9 8 8 8 8 8 7 8 7 7 8 6 7 8 5 9 7 6 11 8 10 13 26 65 82 57 35 26 12 14 59 101 99 87 87 86 77 69 72 68 55
32 31 31 31 31 31 30 30 29 30 29 29 28 28 28 29 31 31 29 25 23 21 19 17 16 15 15 15 14 14 14 13 14 14 14 14 13 13 13 12 12 12 12 11 10 10 9 9 8 8 8 7 8 7 7 7 6 8 6 6 8 6 8 7 6 9 6 12 23 27 45 68 61 36 22 18 16 54 103 100 75 75 92 88 63 76 85 59
32 31 31 31 31 31 31 30 30 30 30 29 29 29 30 31 33 32 30 26 23 21 20 17 17 16 16 16 16 15 15 14 14 14 14 14 14 14 14 13 13 12 12 11 11 10 9 9 9 8 8 7 8 7 7 8 6 7 7 6 7 6 7 7 7 8 6 14 24 30 55 79 66 36 30 28 19 52 102 102 78 67 88 95 63 72 93 64
32 31 31 31 31 31 31 30 31 30 30 30 30 31 32 34 34 33 30 26 23 21 20 18 17 17 16 16 17 16 16 15 15 15 14 15 15 15 15 14 14 13 13 12 11 11 10 9 9 8 9 8 7 8 6 7 7 6 7 6 7 6 6 7 7 8 8 9 11 28 71 101 77 39 36 39 21 40 92 106 90 72 81 95 71 70 89 65
31 32 31 31 31 31 31 31 31 30 31 31 31 33 35 37 36 33 31 26 23 22 20 19 18 17 17 17 17 17 17 16 16 16 15 16 15 16 16 15 16 15 14 14 12 12 11 10 10 9 9 8 7 8 7 7 7 6 6 5 7 6 6 7 6 8 9 8 9 13 37 74 85 60 42 46 31 31 78 105 97 88 84 82 67 69 82 62
31 31 31 30 30 30 30 31 30 30 31 31 33 36 37 39 36 33 30 25 23 22 20 19 18 17 17 17 17 18 18 17 17 17 16 16 16 16 16 16 16 16 15 15 14 13 13 11 11 10 10 9 8 8 7 8 7 6 6 6 7 6 6 7 6 8 7 7 11 10 11 33 67 68 43 41 36 32 74 105 99 99 93 70 51 53 65 55
30 30 29 29 28 29 30 30 30 31 32 33 35 39 40 40 37 33 28 24 23 23 21 19 18 18 18 17 18 18 19 18 18 18 17 17 17 16 17 16 16 17 16 16 15 14 14 13 12 11 11 10 9 9 8 8 7 6 6 6 6 6 5 6 6 7 7 6 8 9 10 14 34 52 43 40 42 37 71 103 99 103 100 74 51 42 48 48
29 29 28 28 28 29 29 30 32 32 33 36 38 41 42 40 37 33 27 23 23 23 22 20 18 18 18 17 18 18 19 19 19 19 18 18 18 17 17 17 17 17 17 16 16 15 14 14 13 12 12 11 10 10 9 8 8 7 7 6 6 5 5 6 6 6 6 6 8 7 9 9 13 30 43 57 59 46 69 101 98 100 102 80 57 44 46 52
28 28 28 29 28 30 31 32 33 33 36 39 42 43 43 41 37 32 26 23 24 23 22 21 19 18 18 18 18 19 20 20 20 19 18 18 18 17 18 17 17 18 18 17 17 16 16 15 15 13 13 12 11 11 10 9 8 7 8 7 6 6 5 5 5 7 6 5 8 7 7 7 7 16 36 61 65 51 74 105 100 97 103 83 57 49 53 58
28 29 29 30 31 31 33 35 35 36 40 43 45 45 44 42 37 30 26 24 25 24 22 22 20 18 17 18 19 19 20 21 21 20 19 19 18 18 19 19 20 20 20 20 18 17 17 16 16 15 14 14 13 12 11 10 9 8 8 7 7 6 5 6 5 5 7 6 6 7 7 7 9 14 20 38 53 49 64 96 100 98 105 87 54 45 54 61
29 30 32 33 34 35 36 39 39 40 44 46 47 47 45 42 36 30 25 24 25 24 23 21 20 18 17 17 19 20 21 21 21 21 20 20 20 20 21 22 24 24 24 25 22 21 21 20 18 17 17 16 14 13 12 11 10 9 9 8 8 7 6 6 5 5 5 6 6 6 6 5 8 13 9 20 48 55 57 79 94 97 102 92 61 40 45 59
33 34 37 38 40 41 43 45 46 46 47 49 50 49 46 41 36 30 26 24 25 24 23 21 20 18 16 17 18 20 21 21 21 22 21 21 21 22 25 27 29 30 30 29 27 27 27 25 22 20 19 18 16 16 14 12 11 10 9 9 8 8 7 6 5 6 5 5 6 5 7 6 6 10 9 17 37 49 53 66 86 101 103 99 79 50 44 56
40 40 43 46 48 49 50 50 50 50 50 51 52 51 46 40 35 30 26 25 24 23 23 21 20 19 17 17 17 19 21 21 21 22 21 22 23 25 29 32 34 34 34 33 32 32 32 31 27 23 21 19 17 17 15 14 12 11 10 9 9 8 7 7 6 6 5 5 6 4 6 6 6 10 13 20 33 40 46 52 63 79 91 104 94 61 53 62
43 46 48 50 52 54 54 54 54 53 53 54 54 51 45 39 35 31 27 25 24 23 23 21 20 19 18 17 17 19 20 20 21 21 22 24 26 29 33 35 38 39 37 36 35 33 32 32 29 26 24 21 19 17 16 15 13 12 11 9 9 8 8 8 6 6 6 5 6 5 6 5 5 10 11 22 40 46 53 68 70 64 74 102 101 74 72 76
38 43 46 50 53 55 56 57 57 56 56 55 54 50 44 38 34 31 28 26 25 24 23 21 20 19 20 19 18 19 19 20 21 22 25 29 31 35 38 40 43 42 40 37 35 33 30 30 28 25 23 21 19 18 16 16 14 13 12 10 10 9 9 9 7 7 6 6 7 5 5 6 4 7 9 21 39 40 51 86 99 84 82 100 102 91 92 86
38 37 39 43 47 51 54 55 56 56 55 54 50 46 41 37 34 31 28 26 25 24 23 21 20 21 22 20 20 21 20 22 25 28 32 37 40 42 42 42 42 40 40 37 34 32 29 28 27 23 21 20 18 17 16 16 15 14 13 11 11 9 9 9 8 8 7 6 8 5 6 10 8 7 8 17 30 32 45 77 95 94 94 98 101 101 100 92
51 45 41 38 38 42 45 46 48 49 50 47 43 41 37 35 35 31 27 27 25 23 24 21 21 23 23 23 26 28 30 33 36 37 41 43 44 44 44 43 40 39 39 36 34 33 30 29 27 24 23 19 18 17 15 15 15 14 14 12 11 11 10 10 8 8 8 7 8 6 6 9 9 9 9 11 18 25 39 58 74 90 99 97 100 103 99 97
65 59 54 48 42 40 39 40 42 42 42 41 37 35 33 32 33 30 27 26 24 24 24 21 22 25 28 35 40 40 42 46 44 42 45 45 44 47 50 48 43 40 39 38 38 38 34 31 28 27 26 21 20 20 17 17 16 14 14 12 11 12 10 10 11 10 9 7 8 8 6 6 7 10 12 11 12 17 26 36 47 75 100 100 101 104 96 99
68 64 67 65 55 50 47 43 42 40 38 37 32 31 31 30 31 30 27 25 24 24 24 22 23 28 38 47 48 46 48 48 45 44 46 47 48 53 55 51 47 43 42 45 46 43 39 35 31 29 28 25 23 23 21 21 19 16 16 13 12 12 11 11 12 11 10 8 8 7 7 7 6 8 12 13 16 17 22 28 27 46 88 103 101 105 100 99
67 59 71 81 68 59 59 53 49 45 39 35 31 29 30 29 29 28 25 24 24 24 24 22 22 31 45 51 50 52 52 47 45 45 45 47 51 55 56 52 49 48 48 51 52 48 42 38 34 31 29 28 27 26 26 26 24 21 19 17 15 13 12 12 11 11 10 8 9 8 6 8 10 13 15 14 15 12 14 29 30 35 80 107 98 101 104 97
70 57 70 85 73 64 69 65 59 54 45 37 31 28 29 27 27 28 24 23 24 23 23 23 22 30 45 51 53 57 53 46 45 44 42 45 49 54 57 54 52 52 54 55 54 49 43 39 36 31 29 30 29 29 28 26 26 24 20 20 19 16 15 14 12 12 11 9 10 8 7 13 19 18 18 19 16 7 11 33 41 40 73 105 97 95 104 99
72 64 69 77 68 66 76 74 67 65 58 46 33 27 28 27 26 27 25 23 24 22 22 23 22 27 39 50 55 56 52 49 48 44 41 43 47 54 58 56 55 55 55 54 51 47 44 42 37 31 31 32 30 30 28 25 25 24 22 22 21 20 18 16 14 13 12 11 11 8 8 16 22 21 33 48 32 8 9 28 41 47 65 90 97 95 99 98
72 66 69 77 68 62 76 82 74 70 67 59 44 30 27 28 26 26 25 23 23 22 22 22 21 23 33 46 52 53 52 51 48 45 41 40 47 57 60 58 56 56 56 53 48 42 41 41 36 31 33 35 32 30 28 25 26 24 25 26 24 23 21 17 17 15 13 13 11 11 9 8 16 26 43 61 46 24 26 29 32 51 64 75 94 98 85 87
79 68 68 81 77 65 74 85 80 74 72 69 60 43 29 28 29 26 26 24 23 22 21 21 22 22 26 36 45 50 51 49 46 43 39 40 50 61 67 65 60 58 58 54 48 41 37 37 35 33 35 36 35 35 31 30 30 28 29 30 27 27 24 21 20 16 15 14 10 14 14 6 13 27 33 43 45 45 57 47 26 41 60 59 78 96 77 77
82 78 67 77 90 83 76 77 78 80 77 73 71 60 43 34 32 31 29 25 24 23 22 21 21 21 23 27 34 41 44 43 41 36 35 42 55 67 73 71 63 62 63 58 51 44 37 35 36 37 38 39 40 40 38 36 36 34 34 33 31 29 26 24 23 19 17 17 13 14 17 10 10 24 32 37 41 42 56 60 37 40 57 45 56 93 81 70
72 79 70 72 93 101 87 73 72 82 87 83 76 69 60 49 40 37 34 30 28 25 23 24 23 21 22 23 25 30 34 34 33 31 37 48 60 70 76 74 68 68 70 66 55 46 40 39 40 40 41 43 43 43 44 43 43 42 40 39 35 31 28 25 25 23 18 17 17 14 17 16 9 15 30 40 43 39 43 56 51 51 63 47 48 92 92 72
60 71 72 70 87 107 100 79 73 82 88 85 81 78 76 66 53 48 45 41 40 34 25 25 26 24 24 24 23 25 26 28 30 35 46 57 64 70 75 76 75 75 74 69 59 49 44 44 44 43 41 41 41 42 44 46 48 48 46 44 40 33 30 27 24 25 20 17 18 14 15 21 14 10 23 36 49 48 40 46 53 64 80 63 46 76 93 87
56 62 70 70 78 96 98 85 82 84 79 80 94 99 88 72 60 59 59 55 54 50 39 34 32 29 28 29 29 30 32 35 40 47 57 63 64 67 71 73 78 84 81 69 57 51 48 46 44 41 40 40 41 43 47 49 52 54 52 49 43 35 31 29 25 25 22 17 18 16 15 20 19 13 15 24 40 48 48 54 56 61 81 77 54 58 76 87
60 58 63 72 75 75 81 88 90 87 77 80 100 106 95 83 70 63 66 65 61 60 56 51 47 40 38 40 40 40 42 42 46 51 54 56 58 61 67 72 79 88 87 74 61 53 47 43 41 40 41 43 43 45 48 51 54 57 56 52 45 38 32 29 26 25 23 19 17 17 15 16 18 16 12 17 29 39 49 64 67 55 55 64 63 57 59 70
67 58 55 70 77 67 70 85 92 90 81 78 93 104 104 100 84 69 70 69 63 63 60 56 56 55 53 54 55 55 54 52 56 61 61 62 66 68 74 83 88 89 83 72 62 54 45 41 41 42 43 43 43 43 43 44 47 51 55 52 46 42 35 30 27 24 22 21 17 16 16 15 17 21 19 15 19 31 43 54 67 64 47 46 59 57 55 62
74 65 53 58 71 71 71 78 86 91 83 77 90 100 97 97 92 81 78 75 72 70 63 55 58 59 55 56 61 60 58 63 70 75 76 80 86 88 90 97 101 95 81 68 58 51 44 41 43 44 45 47 50 49 43 40 41 44 49 49 46 44 39 32 28 25 21 20 17 15 17 17 17 24 33 26 16 34 55 49 46 60 59 55 62 58 56 60
Wind_Speed
16 17 18 19 19 20 21 22 23 23 24 24 25 26 27 28 29 30 30 31 32 33 34 35 35 36 36 37 38 39 40 41 41 42 42 42 43 43 42 42 41 40 40 39 37 36 35 33 31 29 28 26 25 24 25 25 23 22 18 15 17 17 14 12 13 12 9 9 10 8 7 9 10 10 10 11 10 12 16 18 19 21 23 25 27 29 29 30
17 18 19 19 20 21 22 23 24 24 24 25 26 26 27 28 29 30 30 31 32 33 34 34 35 35 36 36 37 38 38 39 41 41 41 42 42 42 43 42 42 42 41 41 40 39 37 35 33 32 30 28 27 27 26 26 25 25 22 19 20 21 19 15 15 15 11 10 9 6 6 8 10 10 10 9 10 11 14 17 18 20 22 24 26 28 28 29
18 19 20 20 21 22 23 24 24 25 25 26 26 27 27 28 29 30 31 32 32 33 34 34 35 35 35 36 36 37 37 38 40 40 40 41 42 42 42 42 43 43 43 43 42 41 40 38 36 34 33 31 30 29 29 27 27 26 24 23 23 23 22 19 18 16 13 12 9 6 6 8 9 11 11 8 9 10 12 15 17 19 21 23 25 26 27 28
19 20 21 22 23 23 24 25 26 26 26 27 27 28 28 29 30 31 32 32 33 34 34 34 35 35 35 35 36 36 37 38 38 39 40 40 41 42 42 42 43 43 43 44 43 43 42 40 39 37 35 34 32 32 31 31 30 28 26 24 24 22 21 19 19 16 12 13 12 9 8 9 10 10 11 8 7 9 10 12 15 18 19 21 24 25 26 27
20 21 22 23 24 24 25 26 26 27 27 28 28 29 30 31 31 32 33 34 34 35 35 35 35 35 35 35 35 36 36 37 37 39 40 40 40 41 41 42 42 43 43 44 44 44 44 43 41 40 39 37 35 34 34 33 32 31 29 27 24 22 20 17 15 14 11 11 13 11 9 9 11 12 12 9 7 8 9 11 14 16 18 20 22 24 25 26
21 22 23 24 25 25 26 26 27 28 28 29 30 30 31 32 33 34 34 35 35 36 36 36 36 36 36 36 35 36 36 37 37 38 39 39 39 39 40 41 42 42 43 44 45 45 45 44 43 43 41 40 38 37 36 35 34 33 32 30 25 22 22 19 14 13 11 9 11 11 10 11 12 13 13 10 7 8 8 10 12 15 17 17 20 22 24 25
22 23 24 25 25 26 26 27 28 28 29 30 30 31 32 33 34 35 36 36 37 37 37 37 37 37 36 36 36 36 37 36 37 37 37 38 38 38 39 40 41 42 43 44 44 45 46 46 45 44 43 42 41 40 39 37 36 35 34 32 29 25 25 23 16 11 9 10 12 10 11 14 14 14 14 11 8 8 8 9 11 14 16 15 17 20 23 25
23 24 24 25 25 26 26 27 27 28 29 30 30 32 33 34 35 36 37 37 38 38 38 38 38 38 37 37 37 37 37 36 37 37 37 37 38 38 38 39 40 41 42 43 44 45 46 46 46 45 45 45 43 42 41 40 39 37 35 34 32 30 28 26 21 12 9 13 15 13 13 15 15 15 15 12 10 9 8 9 10 12 14 14 15 18 21 24
24 24 25 25 25 26 26 27 27 27 28 29 30 31 32 33 34 35 36 37 38 38 39 39 39 39 38 38 37 37 37 37 37 37 38 38 38 38 38 38 39 40 41 43 44 44 45 46 47 46 46 46 45 44 43 43 41 38 37 36 34 33 31 30 28 23 17 16 18 17 16 15 15 16 15 13 11 10 8 8 9 10 13 13 12 15 18 22
25 25 25 25 26 26 27 27 27 27 28 28 29 29 30 31 33 34 35 36 37 38 38 39 39 39 39 39 38 38 38 38 38 38 38 38 38 37 37 38 38 39 40 42 43 44 45 46 46 46 46 46 46 46 45 45 43 41 40 39 37 35 34 32 31 30 24 21 22 21 19 16 16 16 15 13 12 11 9 8 9 9 11 12 11 12 15 19
26 26 26 27 27 28 28 28 28 28 28 28 29 29 30 30 31 32 33 34 35 36 37 38 38 39 39 39 39 39 39 39 39 39 39 38 38 37 37 37 38 38 39 40 42 43 44 45 46 46 46 47 47 46 46 46 45 44 43 42 41 39 38 34 31 32 28 25 26 24 21 19 16 16 16 14 12 12 11 9 9 9 9 11 11 11 13 16
27 28 28 29 29 29 29 29 29 29 29 29 29 29 30 30 30 31 32 32 33 35 36 36 37 38 38 39 39 40 40 39 39 39 39 39 38 38 38 38 38 38 38 39 40 42 44 45 45 45 46 46 47 47 47 47 46 46 45 44 43 42 41 38 35 33 31 28 28 26 24 22 19 17 15 14 13 11 10 9 9 9 8 9 10 10 10 13
29 29 30 30 30 30 30 30 30 30 30 29 29 30 30 30 30 31 31 32 32 33 34 35 36 37 37 37 38 39 40 40 40 40 40 40 39 39 39 38 38 38 38 38 39 41 42 44 45 45 45 46 47 47 47 47 48 47 47 46 45 44 42 41 40 36 33 31 30 28 25 24 21 19 17 16 15 12 10 10 11 10 8 7 8 9 9 11
30 31 31 31 32 32 31 31 31 30 30 30 30 31 31 31 31 31 31 31 32 32 32 33 34 35 36 36 37 37 38 39 40 40 41 40 40 40 40 39 39 39 38 38 39 39 40 42 44 45 45 45 47 47 47 48 48 48 48 48 46 45 43 43 42 39 35 32 31 29 27 27 24 22 21 19 17 14 12 12 12 12 9 6 7 9 9 9
32 32 33 33 33 33 32 32 31 31 31 31 31 31 31 31 31 31 31 32 31 31 31 31 32 33 34 35 35 36 36 37 39 40 41 41 41 41 41 40 40 40 39 39 38 38 39 40 42 43 45 46 46 46 47 49 49 49 49 48 47 47 46 45 43 42 38 33 33 30 27 30 30 27 26 23 20 17 14 14 13 12 11 7 7 8 8 8
34 34 34 34 34 33 33 32 32 32 32 32 32 32 32 32 32 32 32 32 31 31 30 30 30 30 32 33 34 34 35 36 37 39 40 41 42 42 42 41 41 41 40 39 39 38 39 39 40 42 44 45 45 46 48 49 49 50 49 49 48 48 47 45 44 44 41 35 34 33 29 31 32 30 28 26 22 18 16 16 14 14 13 9 7 8 8 8
35 35 36 35 35 34 34 33 33 33 33 33 33 33 32 32 32 32 32 31 30 30 29 29 28 28 29 30 31 32 33 34 35 36 39 41 42 43 43 42 42 42 41 40 40 40 39 40 40 41 42 44 45 47 48 49 49 49 48 49 49 49 48 46 45 44 44 40 37 37 35 32 33 33 30 28 24 19 17 17 15 15 14 11 9 9 8 7
36 36 36 36 36 35 35 34 34 34 34 34 34 33 33 32 32 32 32 31 30 29 28 27 27 26 27 28 29 30 31 32 33 35 36 39 41 42 43 43 43 42 42 41 41 41 41 41 41 41 42 43 44 45 47 48 48 47 48 50 49 49 49 48 48 46 44 44 41 39 36 33 34 35 33 30 26 20 19 20 17 16 15 12 10 10 9 7
37 37 37 37 37 36 36 35 35 35 35 35 35 34 33 32 32 31 32 31 29 28 27 26 25 25 25 26 27 28 29 30 32 33 35 37 39 41 42 43 43 43 43 43 42 42 42 42 42 42 42 42 43 44 46 46 46 47 49 49 49 49 49 48 49 48 45 46 45 41 38 35 35 36 35 32 27 23 21 23 20 18 18 16 12 12 10 8
38 38 38 38 37 37 37 37 36 36 35 35 35 34 33 32 32 32 32 31 29 28 26 25 24 23 23 24 25 26 27 28 30 32 33 35 37 38 40 41 42 43 43 43 43 43 43 43 43 43 42 42 42 43 44 44 44 48 49 48 49 49 48 48 49 48 47 47 47 43 39 39 38 37 37 33 27 24 24 26 24 21 21 18 14 14 11 9
38 38 39 39 38 38 38 37 37 36 36 36 35 35 33 32 31 31 32 31 29 27 26 24 22 22 22 22 23 24 25 27 29 30 32 34 35 36 38 39 41 42 42 43 43 43 43 44 44 44 44 43 43 44 44 43 44 47 48 47 49 49 48 50 51 49 50 50 48 46 41 39 41 40 39 36 30 26 27 29 27 23 22 21 18 16 13 11
39 39 39 39 39 39 38 38 37 37 37 36 36 35 33 32 31 31 31 30 28 27 25 23 22 21 21 21 21 22 23 25 27 29 31 32 34 35 37 38 39 40 42 42 42 43 43 44 45 44 45 44 44 44 44 43 44 45 46 46 48 49 49 51 51 50 52 51 49 48 44 39 40 40 39 38 33 29 29 30 28 24 24 23 21 18 16 13
40 40 40 39 39 39 39 38 38 37 37 36 36 34 33 31 31 31 31 30 28 26 24 22 21 20 19 20 20 21 22 24 25 27 29 31 32 34 35 37 38 39 41 41 42 42 43 43 44 44 45 45 45 44 44 44 44 45 45 46 47 48 49 50 50 50 52 51 49 49 47 42 40 41 40 37 35 33 30 30 30 27 26 26 23 20 18 16
41 40 40 40 39 39 39 38 38 37 37 36 35 34 32 31 31 31 31 29 27 25 23 22 21 20 19 19 19 20 21 22 24 26 28 29 31 33 34 36 37 38 39 40 41 42 42 42 43 44 44 45 45 45 45 45 45 46 46 46 47 48 48 49 50 51 52 51 50 50 48 45 43 42 41 38 37 36 33 31 32 30 29 29 26 22 21 19
41 41 41 40 40 39 39 38 37 37 36 35 34 33 31 31 31 30 30 29 27 24 22 21 20 19 18 18 18 19 20 21 23 25 26 28 30 32 33 34 36 37 38 39 40 41 41 41 42 43 44 44 45 45 46 47 47 47 48 47 46 46 46 48 49 49 51 53 53 53 50 45 44 44 43 40 39 40 37 33 33 33 32 32 30 25 24 22
41 41 41 40 40 39 39 38 37 36 35 35 33 32 31 30 31 30 29 29 27 24 22 20 19 19 18 18 18 19 20 21 22 23 25 27 28 30 31 33 34 35 36 37 39 39 40 41 41 42 43 44 45 46 47 47 47 48 47 45 44 45 46 47 47 48 52 55 55 57 54 48 46 46 44 43 41 42 40 35 36 36 34 35 34 29 27 25
41 41 41 41 40 39 38 37 36 35 34 33 32 31 30 30 31 30 29 28 26 23 21 20 19 18 17 18 18 18 19 21 21 23 24 25 27 28 30 31 32 33 35 36 37 38 39 39 40 41 42 43 44 45 46 47 48 48 46 44 45 48 49 48 48 50 55 57 55 57 57 53 50 46 45 45 43 44 42 37 38 39 37 38 38 33 30 27
41 41 41 41 40 39 38 37 35 34 33 32 31 30 30 30 30 30 28 26 24 22 21 20 18 18 18 18 17 17 19 20 21 22 24 25 26 27 28 29 30 31 32 34 35 36 37 38 39 41 42 42 43 44 46 47 47 47 46 46 49 50 49 48 49 51 54 54 54 57 58 56 54 49 45 45 45 45 42 38 38 39 39 40 40 36 31 29
41 41 41 41 40 38 37 36 34 33 32 31 30 30 30 30 30 29 28 25 22 21 20 20 18 18 18 18 17 18 19 19 21 22 23 24 25 26 27 28 28 29 30 32 33 34 36 37 38 39 40 42 42 44 45 46 47 47 46 47 49 49 48 48 49 50 52 52 53 57 59 58 57 53 47 45 45 46 43 40 39 39 39 42 43 40 33 31
41 41 40 40 39 37 36 35 33 32 31 29 29 29 30 30 29 29 27 23 21 20 19 19 19 18 17 18 18 18 18 19 21 22 23 24 25 25 26 26 27 28 29 30 31 32 34 35 36 38 39 40 42 43 44 45 46 46 47 47 48 48 48 49 49 50 52 52 53 57 60 59 58 56 54 50 47 47 46 44 41 40 41 43 44 40 36 34
40 40 39 38 37 36 34 33 32 31 30 29 29 30 30 29 29 28 25 22 21 20 19 19 19 18 17 17 17 18 18 20 21 22 23 23 23 24 24 25 25 26 27 28 29 30 31 33 34 35 37 38 40 42 43 45 46 46 46 47 48 49 48 48 49 50 52 53 55 57 59 59 58 57 58 56 50 49 50 47 43 39 40 44 45 40 37 37
38 38 37 36 36 34 33 32 31 30 29 29 29 30 30 29 28 27 25 22 19 19 19 19 19 19 18 16 17 17 18 20 21 22 22 22 23 23 23 23 24 24 24 25 26 27 28 30 32 33 34 36 38 40 41 43 44 45 46 47 48 48 48 49 49 50 52 55 57 57 57 59 59 57 59 60 55 51 51 50 47 42 40 43 46 44 39 38
36 35 35 34 34 33 32 31 31 30 30 30 30 30 30 29 27 26 25 21 19 18 18 18 19 19 18 17 16 17 18 20 21 22 22 22 22 22 22 22 22 22 23 23 24 24 25 28 30 31 33 34 36 37 39 41 43 44 45 46 48 49 49 49 49 49 53 57 58 57 57 58 59 59 60 60 57 54 52 50 50 45 41 43 46 45 42 40
34 34 33 33 32 32 31 31 31 31 31 31 31 31 30 28 27 26 25 22 20 18 18 18 18 19 18 17 16 17 18 20 21 22 22 22 22 21 21 21 20 21 21 22 23 23 25 27 29 31 32 34 35 36 38 39 41 42 44 45 47 48 49 49 49 50 53 55 55 54 56 57 58 60 61 60 58 56 52 51 52 49 45 44 46 46 44 43
33 33 32 32 32 31 31 31 32 32 32 32 32 32 31 28 26 26 25 22 20 19 18 17 18 19 19 17 16 17 18 20 21 21 21 21 21 20 20 19 19 20 21 22 23 24 25 28 30 31 32 34 35 36 37 38 40 41 42 44 44 46 48 49 50 50 51 52 52 53 55 58 59 60 62 61 59 57 52 48 50 51 49 46 47 48 47 46
34 34 33 32 32 32 32 32 33 33 33 34 33 33 31 29 26 25 25 23 21 19 18 17 18 19 19 18 17 17 18 19 20 20 20 20 19 19 19 19 19 20 21 22 24 25 27 29 32 32 33 35 36 36 37 38 39 40 41 42 42 44 46 48 50 50 51 52 53 55 57 60 60 59 60 62 61 61 58 50 46 48 49 47 46 49 48 47
35 34 34 34 33 33 33 33 33 34 34 35 34 34 32 29 27 26 25 24 22 20 18 18 19 19 19 18 17 17 17 18 19 19 19 19 18 18 18 18 19 20 22 24 25 27 29 31 33 34 35 37 38 38 39 39 40 40 41 41 41 42 43 45 48 51 53 54 54 56 58 59 60 59 60 62 63 63 62 56 47 43 45 48 45 46 47 47
36 35 35 34 34 33 34 34 34 34 35 36 35 34 33 29 28 27 26 24 23 21 19 19 20 20 20 18 16 17 17 17 18 18 18 18 18 17 18 19 20 21 23 25 26 29 31 33 34 35 37 38 39 39 40 40 41 41 42 42 41 41 42 43 46 50 53 54 55 57 58 58 60 60 61 63 65 66 65 61 51 36 36 47 48 44 46 48
38 36 36 35 34 33 33 33 34 34 35 36 35 34 33 30 28 28 26 25 23 21 20 20 21 22 21 18 19 19 19 18 19 18 17 18 17 17 18 20 21 22 23 26 27 30 32 34 35 35 36 38 38 39 39 39 40 41 42 42 41 42 42 43 45 48 51 54 56 58 59 59 60 61 62 63 64 67 67 66 60 43 31 40 51 48 46 48
39 37 36 37 35 33 33 32 33 33 33 35 34 33 32 30 28 28 27 26 24 22 21 21 23 24 23 21 21 20 20 20 20 18 18 18 17 18 20 21 22 23 24 26 28 31 32 33 35 34 35 36 35 35 35 36 38 38 39 41 41 42 43 44 46 47 49 53 56 58 58 58 60 61 62 64 63 65 68 66 67 60 42 38 49 52 48 49
41 36 35 39 37 33 33 32 31 32 32 33 32 30 31 30 27 27 27 25 24 22 22 22 25 26 25 24 22 21 22 22 20 19 18 18 18 20 22 22 23 23 25 26 29 31 32 32 33 32 32 33 32 31 31 31 33 34 35 37 38 40 42 44 47 49 50 52 54 57 58 56 57 58 60 63 63 64 67 66 66 67 55 45 49 52 50 48
42 37 35 39 38 33 33 33 31 31 30 30 29 28 29 29 27 26 27 25 23 23 22 23 26 29 28 26 24 24 25 23 21 20 20 20 21 22 23 23 24 24 26 27 29 31 31 31 32 31 29 29 28 27 28 28 29 29 30 32 33 36 39 41 45 49 51 53 54 56 57 54 55 57 58 60 64 64 66 68 67 66 58 49 51 55 52 48
45 39 37 39 38 33 33 35 33 31 30 29 28 28 27 27 26 25 25 24 23 22 22 23 27 30 30 28 28 28 26 24 23 23 21 22 23 24 25 25 25 26 27 28 29 29 29 30 30 28 27 26 25 26 27 27 27 28 28 29 30 32 35 37 40 45 51 54 55 55 56 55 55 56 54 55 62 65 64 67 69 67 60 51 51 56 56 52
48 44 39 40 39 35 33 35 34 33 32 29 28 27 26 26 26 24 24 24 23 22 22 23 26 29 32 32 31 30 28 27 26 25 24 24 25 26 26 26 26 27 28 29 29 28 28 29 28 26 25 25 25 26 27 26 27 28 28 28 29 30 32 34 36 40 47 53 57 57 57 58 59 59 57 56 58 61 62 66 69 69 65 56 49 52 58 57
50 47 42 41 41 37 34 35 34 33 33 31 29 28 26 26 26 24 23 23 22 22 22 22 24 28 32 34 34 32 30 29 28 27 26 26 27 27 27 28 28 29 30 29 29 28 27 27 26 25 25 24 25 26 27 27 28 29 29 29 29 29 30 32 34 36 42 48 56 59 58 61 64 63 62 60 58 61 62 64 68 70 68 65 56 50 56 60
50 49 45 42 41 40 38 36 33 33 33 33 32 30 28 27 26 25 24 23 23 22 22 22 23 25 29 33 35 34 33 32 30 28 28 28 27 26 28 29 29 30 31 30 29 28 28 27 26 26 26 26 26 27 27 29 30 30 30 30 30 30 30 31 32 34 38 43 51 59 62 64 66 65 63 62 61 66 67 63 65 69 68 70 64 52 54 62
50 50 48 45 42 42 42 38 34 33 33 33 34 33 30 29 28 26 25 23 22 23 23 22 22 24 26 30 33 33 33 33 31 30 30 30 28 27 29 30 30 31 31 31 29 29 28 28 27 27 27 27 28 28 29 30 31 31 32 31 31 31 31 31 32 33 36 40 45 55 62 66 67 67 65 64 63 67 70 65 64 66 66 70 68 55 53 60
48 49 49 47 45 45 45 41 37 35 34 33 33 34 34 33 31 28 27 25 24 25 24 23 24 24 25 27 30 31 32 33 32 31 31 31 30 29 30 30 31 32 32 30 29 29 28 28 29 28 29 29 29 29 30 30 31 32 32 32 32 32 32 31 32 33 36 39 42 49 59 65 68 69 69 67 66 67 70 68 66 67 66 69 71 62 54 58
46 47 49 48 48 49 48 44 40 39 36 32 32 34 37 38 35 31 31 30 28 27 27 25 26 26 26 27 29 30 32 33 32 31 32 33 32 31 31 31 30 32 32 30 29 29 28 28 29 29 29 29 29 29 29 30 31 31 32 32 33 32 32 32 32 34 36 39 41 46 55 62 68 72 72 70 69 69 71 69 69 71 69 68 73 70 62 62
44 45 47 48 50 50 48 46 44 42 39 34 34 35 36 37 38 37 35 34 33 32 30 29 29 29 28 29 31 32 34 35 34 33 34 35 34 33 33 33 31 30 31 30 29 29 28 28 28 28 27 26 26 26 27 29 30 30 31 32 33 33 33 33 33 34 37 40 41 43 51 60 68 73 74 73 70 70 73 72 70 74 75 71 73 74 69 69
44 44 45 47 50 50 48 48 46 44 42 38 36 35 35 36 38 38 38 39 38 37 35 34 33 32 32 33 34 35 37 36 35 35 36 37 36 35 35 34 32 30 29 29 29 28 28 27 26 25 23 23 23 24 25 27 28 29 31 32 33 33 33 33 33 33 36 38 41 41 44 54 65 70 72 74 73 70 73 75 71 72 76 74 73 75 74 73
44 44 43 45 49 50 49 49 47 44 43 41 38 36 36 36 36 36 37 39 39 39 39 37 36 36 36 36 37 39 39 37 37 38 38 38 37 37 35 33 32 31 29 28 28 27 27 25 23 23 22 22 22 23 24 25 26 28 30 31 32 32 32 32 31 32 33 35 38 40 41 48 61 68 66 70 75 73 71 75 73 70 73 73 72 75 76 76
Wind_Direction
249 250 251 252 252 253 253 254 254 255 255 256 256 257 257 257 258 257 257 256 255 253 252 250 249 248 248 248 248 247 246 244 243 241 240 239 239 238 238 237 237 236 235 235 234 234 233 232 230 228 226 224 222 219 218 225 234 242 241 238 241 241 247 247 239 238 238 260 275 284 302 317 322 329 335 338 349 -0 3 0 2 7 9 10 10 10 7 4
255 255 256 256 256 256 256 256 256 256 256 256 256 257 257 257 257 257 257 257 256 255 254 252 250 249 248 248 248 248 247 246 244 242 241 240 239 239 238 237 237 236 236 236 235 234 234 232 231 229 227 225 223 222 221 224 230 235 234 232 236 238 242 247 246 243 238 258 279 278 285 304 313 321 324 333 346 353 358 358 1 6 8 9 10 10 8 5
261 262 262 261 261 261 261 260 260 259 258 258 257 257 257 257 257 256 256 256 256 255 254 253 252 250 249 248 247 247 247 247 246 244 242 240 239 239 238 237 237 237 236 236 235 234 234 233 231 230 229 226 224 224 222 224 228 231 233 232 235 238 244 250 252 251 247 253 263 266 277 294 304 312 314 325 341 342 351 357 1 6 7 8 11 11 9 7
264 265 265 265 265 264 264 263 263 262 262 261 260 259 259 258 257 257 256 255 255 255 254 254 253 252 250 249 247 247 246 246 246 245 243 241 239 238 238 237 237 237 236 236 236 235 234 233 232 231 230 228 226 225 224 225 228 230 232 233 236 239 243 249 251 250 253 250 245 256 278 285 293 301 302 312 332 334 345 358 3 6 7 8 10 12 11 9
266 267 267 267 267 267 267 266 266 265 264 264 263 262 261 260 259 258 258 257 256 255 254 254 253 252 251 250 248 247 246 245 245 245 244 242 240 238 238 237 236 237 236 236 235 235 235 233 233 231 230 229 227 227 226 226 227 229 230 232 235 236 233 239 250 247 249 250 240 252 270 275 286 290 289 294 313 326 340 358 4 5 7 7 10 14 13 11
269 270 270 270 270 270 270 270 269 269 268 267 266 265 264 263 262 261 260 259 258 257 255 254 253 252 252 251 250 248 247 245 245 245 244 243 241 239 237 236 236 236 236 236 235 235 235 234 233 232 231 229 228 228 227 226 227 228 229 230 230 230 229 237 254 251 246 249 246 257 265 263 271 275 279 288 304 321 337 352 1 5 7 7 10 15 16 14
273 273 274 273 274 274 274 274 273 273 272 271 270 269 268 266 265 264 263 262 261 260 258 257 255 253 252 251 250 249 248 247 245 244 244 243 241 239 237 236 235 235 235 235 235 234 234 234 233 233 232 230 229 229 228 228 227 228 229 229 228 229 232 239 248 253 262 265 259 259 258 258 263 267 275 286 301 314 331 342 354 4 6 6 10 15 18 16
276 276 277 277 278 278 278 277 277 277 276 275 273 272 271 270 269 268 266 265 263 262 261 259 257 255 253 251 250 249 249 248 246 245 243 242 241 239 238 236 235 234 234 234 234 234 234 234 233 232 232 231 230 229 229 229 229 228 229 231 231 231 232 235 233 232 255 266 263 258 254 260 267 272 275 280 294 303 314 329 343 1 5 4 6 12 17 18
280 280 281 282 283 283 282 282 281 281 280 279 277 276 274 273 272 271 269 268 266 265 263 261 259 257 255 253 250 249 249 248 247 246 244 242 241 239 238 236 235 234 233 233 233 234 234 234 233 233 232 232 231 230 229 230 229 229 229 230 232 233 231 232 230 230 240 257 263 260 255 258 263 268 274 277 286 293 298 315 330 352 2 1 359 4 13 18
284 285 286 287 287 287 287 287 287 286 285 284 282 280 278 276 274 273 272 271 269 268 266 263 261 259 257 254 252 249 248 247 247 246 245 243 241 240 239 237 236 234 233 233 233 233 233 234 233 233 233 232 231 230 230 230 229 229 229 229 230 232 232 232 233 233 234 245 255 255 253 254 254 258 267 272 273 279 283 298 318 339 355 357 352 356 6 14
289 290 291 292 291 291 292 292 292 292 290 288 286 284 281 279 277 275 274 272 271 270 268 266 263 261 258 255 253 250 248 247 246 246 245 244 243 241 239 238 236 235 234 233 232 232 232 233 233 232 232 232 232 231 230 230 229 229 229 229 229 231 232 232 234 234 231 236 246 249 250 250 252 252 256 262 262 267 276 286 306 323 341 350 346 346 356 6
292 293 294 294 294 295 295 295 296 295 294 292 290 288 286 284 282 280 277 275 273 271 270 268 266 263 260 257 254 251 249 247 245 245 245 244 243 241 240 238 237 236 234 233 233 232 232 232 232 232 232 232 231 231 230 230 229 229 228 229 229 231 231 232 233 234 232 233 240 246 247 247 251 251 250 255 255 259 268 275 292 303 318 341 342 338 345 358
293 294 295 295 296 297 297 297 298 297 296 295 293 292 290 289 287 285 282 279 276 274 271 269 267 265 262 259 255 251 249 247 245 244 243 243 242 241 240 238 237 236 235 234 233 232 232 231 231 231 231 231 231 230 230 230 230 229 229 228 228 230 231 232 232 232 233 233 236 241 241 240 246 246 243 246 247 245 241 252 277 285 293 327 335 331 335 347
294 295 295 296 297 298 298 299 299 298 298 297 296 295 294 293 292 290 287 284 280 277 274 271 268 265 263 260 256 252 249 247 244 243 242 242 241 240 239 238 237 236 235 234 233 233 232 231 231 231 230 230 230 230 229 230 229 228 228 228 227 228 229 231 231 230 231 230 230 233 237 237 240 241 239 239 241 237 228 240 265 271 273 309 325 322 326 334
294 295 296 297 298 299 299 300 300 300 299 299 299 298 297 297 296 294 291 288 285 282 278 274 270 267 263 260 257 254 250 247 244 241 240 240 240 239 239 238 237 236 235 234 233 233 233 232 231 230 230 229 229 229 229 229 229 228 228 227 227 226 227 230 231 229 229 230 228 229 237 238 235 236 236 237 238 236 231 236 245 249 258 288 311 311 316 323
294 295 297 298 299 300 300 301 301 301 301 301 301 300 300 300 299 297 294 292 289 286 282 278 274 269 264 260 257 253 250 246 243 240 239 237 237 238 238 237 237 236 235 234 233 233 232 232 232 231 230 230 228 228 229 228 228 227 227 227 226 226 226 227 229 229 228 228 227 224 229 235 233 231 233 236 238 238 233 229 227 233 249 269 290 298 305 311
294 296 298 298 300 300 301 302 302 302 303 303 303 302 302 302 301 299 297 294 292 290 286 282 277 271 266 261 257 253 249 245 242 239 237 236 235 236 236 236 236 236 235 234 234 233 232 232 232 232 231 230 229 228 229 229 228 228 227 227 226 225 225 225 225 227 226 226 225 223 224 230 232 229 230 232 232 235 230 224 223 231 244 255 268 281 289 297
295 296 298 299 300 301 302 303 303 303 304 304 303 303 303 304 303 301 299 297 295 293 289 285 280 274 268 263 257 252 248 244 241 238 236 234 234 234 235 235 235 235 234 234 233 233 233 232 232 232 232 231 230 229 229 229 229 229 228 227 226 225 225 225 225 225 226 225 224 224 224 227 230 228 229 228 225 228 229 226 225 228 236 241 249 265 273 282
295 297 298 299 301 301 302 303 303 304 305 304 304 304 305 305 304 302 300 299 298 295 292 287 282 276 270 264 258 252 247 243 239 236 234 233 233 232 233 234 234 234 234 233 233 233 233 233 232 232 232 232 232 231 231 229 228 229 228 226 226 224 224 225 225 224 224 224 223 223 223 224 224 224 226 226 223 224 225 228 229 224 229 233 238 252 259 268
295 296 298 299 300 301 302 303 304 304 305 304 304 305 306 306 305 303 301 301 299 297 294 290 285 279 272 265 259 252 247 242 238 235 233 232 231 231 232 232 233 233 233 233 233 233 233 233 234 233 233 233 232 233 232 229 228 229 228 226 226 224 223 223 224 223 222 223 222 220 222 224 223 222 224 223 220 220 220 226 229 224 227 230 231 242 248 253
295 296 297 298 300 300 301 303 303 304 305 304 304 305 306 306 305 304 303 302 301 299 296 291 286 280 273 266 259 253 247 241 237 234 232 230 230 230 230 231 232 232 232 233 233 233 233 234 234 234 234 233 232 233 233 230 229 230 228 226 226 224 221 222 222 222 222 222 221 219 221 224 222 222 223 220 215 216 219 223 228 226 228 229 227 234 240 242
294 295 297 298 299 300 301 302 303 304 304 304 304 305 306 305 305 304 303 302 302 300 297 292 287 281 274 267 260 253 246 241 236 234 231 230 229 229 229 229 230 231 231 232 232 233 233 234 234 234 235 234 233 233 233 232 231 231 229 227 227 224 222 222 221 222 224 223 222 220 219 221 221 221 222 219 214 213 215 218 225 228 229 230 226 228 233 235
293 294 296 297 298 299 300 301 302 303 303 303 303 304 305 304 304 303 303 302 302 300 296 292 287 281 274 267 260 253 246 241 236 233 231 229 228 228 228 229 229 230 231 232 232 233 234 234 235 235 236 236 236 235 234 234 233 233 231 228 228 225 223 223 221 222 223 222 222 221 220 221 221 219 221 220 213 210 211 214 221 227 228 229 225 222 227 231
293 294 295 296 297 298 299 300 301 302 301 302 302 303 303 303 303 303 303 303 302 300 295 291 286 280 273 266 260 253 246 240 236 232 230 228 228 228 228 228 229 230 231 232 233 234 234 235 235 235 236 236 237 237 236 236 234 233 232 229 228 226 224 223 221 221 222 221 221 221 219 221 220 216 218 219 213 207 209 212 216 222 226 228 226 222 223 226
292 293 294 295 296 297 298 299 300 300 300 301 301 302 302 302 302 303 304 303 302 299 293 289 284 277 271 265 258 250 244 238 234 231 229 227 227 227 227 228 229 230 230 232 233 234 234 235 235 235 236 236 236 237 237 236 236 234 233 230 229 228 226 224 221 221 222 221 221 220 217 218 218 215 215 217 214 208 209 213 213 217 223 226 227 223 221 223
291 292 293 294 295 296 297 298 298 298 299 299 300 301 301 301 302 303 304 304 302 297 291 288 282 275 270 263 255 248 242 236 232 230 227 226 226 226 227 227 228 229 230 232 233 234 235 235 235 236 236 236 236 237 237 237 237 236 234 232 231 230 228 225 220 220 222 219 220 221 218 216 216 215 214 215 214 211 211 214 213 214 218 224 226 220 219 223
291 291 292 293 294 294 295 296 296 297 297 297 298 299 300 301 302 303 304 304 301 296 290 285 279 274 268 261 254 246 240 234 229 227 225 225 224 224 225 226 227 228 229 231 232 233 234 235 236 236 236 237 236 237 237 238 238 238 235 233 232 230 227 225 220 220 222 219 218 221 219 216 216 215 215 214 214 214 213 212 214 215 215 222 228 222 219 225
290 290 291 292 292 293 294 294 295 295 295 296 297 297 299 300 302 303 304 303 299 293 289 284 277 272 266 260 253 245 239 233 227 225 223 222 222 223 224 225 226 228 229 230 232 233 234 235 236 236 237 237 237 238 238 238 238 238 236 234 233 230 227 225 222 222 224 220 219 222 220 217 215 214 214 215 215 215 214 210 211 215 214 219 228 228 224 227
289 290 290 291 291 292 292 293 293 293 293 294 295 296 298 300 302 303 303 301 296 289 286 282 275 270 265 260 253 244 238 232 226 223 221 220 220 221 222 224 225 227 228 229 231 233 234 235 236 237 238 238 238 238 239 239 239 238 238 236 235 233 229 227 224 223 225 222 219 221 221 218 215 212 211 212 213 213 213 206 204 210 212 218 228 229 226 226
289 289 290 290 291 291 291 291 291 291 292 293 294 296 297 299 301 302 301 300 294 287 282 279 273 268 263 258 251 243 235 230 226 223 220 218 218 218 220 221 223 225 227 229 230 232 234 236 237 238 239 239 239 239 239 239 239 239 238 237 236 235 231 227 225 224 224 223 221 221 220 218 215 212 210 212 212 210 209 206 202 204 208 216 227 227 222 224
288 289 289 290 290 290 290 290 290 290 290 292 293 295 296 298 300 300 299 297 291 285 280 274 271 266 259 253 248 240 233 228 225 223 220 217 216 216 217 218 221 223 225 228 230 232 234 237 238 239 240 241 241 241 240 240 240 239 238 238 237 235 232 229 226 224 224 223 222 221 220 218 215 212 212 213 213 210 210 211 210 209 208 213 224 227 221 222
287 288 288 289 289 289 289 289 288 289 289 290 292 294 295 297 299 298 296 294 289 282 277 271 267 264 258 250 243 237 231 225 223 221 219 216 215 214 215 217 220 223 226 230 233 235 238 240 241 241 242 243 243 244 242 241 241 239 238 237 237 236 234 231 227 224 224 224 222 221 220 219 216 214 213 213 213 211 210 214 217 216 214 212 219 227 224 222
286 287 287 287 288 288 288 287 287 288 289 290 291 292 294 296 297 295 292 291 285 277 272 267 262 261 258 250 240 233 227 222 218 217 217 215 214 212 213 216 221 226 230 234 237 240 244 247 246 246 246 246 246 247 246 245 243 241 239 237 237 236 235 233 229 225 224 224 222 220 219 219 216 214 213 212 212 211 211 217 220 217 217 215 218 224 224 220
285 285 285 285 286 286 286 286 286 287 288 289 290 291 291 293 294 291 289 288 283 274 268 261 257 257 256 250 240 229 223 219 215 213 213 212 212 211 213 217 223 230 236 240 244 246 249 253 253 252 251 250 248 248 248 248 246 243 241 238 237 236 235 234 232 228 226 226 224 221 220 219 217 215 214 211 211 211 211 217 222 220 220 221 220 222 223 221
283 283 283 283 283 284 284 284 285 286 287 288 288 289 289 290 290 288 286 285 281 273 264 256 252 251 251 248 240 227 220 215 212 210 209 210 210 211 216 222 229 237 243 247 251 253 254 257 258 257 257 256 253 251 250 248 248 246 244 241 238 236 234 233 232 230 228 226 225 222 221 221 219 215 214 212 210 210 209 213 219 219 218 219 218 220 223 225
282 281 280 280 280 280 281 282 283 284 285 286 286 287 287 287 287 284 282 281 279 272 262 251 245 245 244 240 233 224 217 211 208 206 205 209 212 215 222 230 237 245 252 256 258 260 261 263 264 262 261 260 258 256 254 251 250 248 246 244 240 237 235 233 233 231 229 226 224 220 219 220 220 216 215 213 211 210 210 212 216 215 215 214 214 217 221 224
282 281 280 279 278 278 279 280 281 282 283 283 284 285 284 285 284 280 277 278 275 269 259 246 240 239 235 229 223 217 213 208 206 205 207 212 218 224 231 239 246 254 261 265 268 269 269 270 270 267 265 263 261 258 256 254 252 250 248 246 242 240 236 233 232 230 229 227 225 221 218 218 218 216 215 215 212 210 210 211 212 214 216 215 212 216 219 222
282 282 281 280 279 278 278 278 279 280 281 282 282 283 282 282 280 277 276 274 272 268 257 242 233 231 226 218 213 213 213 212 213 213 215 222 228 235 243 250 256 263 269 274 277 278 277 276 274 272 270 267 264 261 258 256 254 252 249 246 243 241 238 234 231 230 229 227 225 223 220 217 216 215 215 216 213 210 209 209 208 211 219 218 214 215 216 219
280 280 281 281 280 279 278 279 279 279 280 280 281 281 281 279 277 274 273 272 270 266 254 238 227 225 221 213 214 216 215 217 222 223 225 232 239 246 253 259 265 271 278 282 285 284 283 281 278 276 273 270 267 265 262 259 255 252 250 247 243 240 238 235 232 230 228 227 225 224 221 217 216 215 215 216 214 212 210 209 208 207 215 220 217 214 213 214
280 280 280 279 279 279 280 279 279 279 279 279 280 280 279 277 274 272 271 270 268 263 253 237 224 221 219 217 219 221 220 222 227 229 234 241 248 253 258 264 271 278 284 289 290 288 286 284 281 279 276 273 270 267 264 261 257 253 251 249 244 240 236 233 232 230 227 226 225 224 222 218 216 215 215 215 215 212 211 211 209 207 211 217 216 213 209 209
278 279 280 278 277 277 278 279 278 279 279 279 280 280 278 275 272 270 269 268 266 261 252 237 224 219 219 221 222 224 227 229 233 237 242 248 253 257 262 269 275 282 288 291 291 289 287 286 283 281 278 275 272 268 264 262 259 256 253 250 247 242 236 232 230 230 228 226 225 224 223 219 217 216 216 215 216 214 211 212 211 209 211 216 214 210 206 206
275 277 278 277 277 276 275 275 276 278 279 280 281 279 276 274 271 268 268 267 264 259 252 239 227 220 221 222 223 227 232 236 240 244 248 253 257 261 266 272 279 285 288 290 290 289 288 286 284 282 280 276 272 268 265 263 262 260 257 255 253 248 242 235 230 228 227 225 224 223 221 219 216 216 216 216 216 214 212 212 210 209 212 215 215 212 207 206
272 273 274 276 277 276 274 272 272 275 277 279 280 278 275 273 270 267 267 266 262 258 253 243 231 223 222 224 225 230 235 239 243 248 252 256 260 264 268 273 279 284 288 290 290 288 287 285 284 284 281 277 272 268 266 264 263 263 262 259 258 254 249 242 233 228 226 224 223 221 219 218 215 212 214 216 216 213 212 213 211 209 212 215 216 216 210 208
269 269 270 273 275 275 274 271 270 270 273 276 278 276 273 271 269 266 265 264 261 257 253 246 237 228 225 227 229 232 237 241 245 250 254 258 260 265 270 275 279 284 288 291 290 287 284 283 284 285 281 277 273 270 268 267 265 264 265 264 262 260 255 248 239 232 227 224 222 220 218 216 214 210 210 213 213 210 211 214 213 211 213 213 216 218 213 210
266 266 266 268 271 272 272 272 270 268 268 270 272 274 272 269 268 265 263 262 259 256 252 249 243 234 229 230 233 235 240 244 248 252 255 257 260 266 272 276 280 285 289 291 291 286 282 282 284 284 280 277 274 272 271 269 267 266 267 267 265 263 260 255 247 238 231 225 221 219 216 215 214 211 209 209 208 206 208 212 213 213 213 212 215 219 213 210
261 262 262 263 266 269 269 270 270 269 267 266 267 269 269 267 266 264 261 259 257 255 252 249 246 240 235 234 237 239 243 247 250 253 254 256 260 266 270 274 281 286 289 292 290 285 282 283 283 281 279 277 275 273 272 270 270 269 269 269 267 264 261 259 254 245 236 230 223 219 215 214 214 213 210 208 207 205 206 209 211 212 213 213 213 217 215 211
259 259 259 260 261 264 266 266 268 269 268 265 262 263 265 264 262 261 260 258 255 253 250 247 247 244 240 239 240 242 245 248 250 252 254 257 260 264 267 273 280 283 287 292 289 284 282 284 283 282 279 277 275 273 271 270 270 270 269 269 268 265 261 258 256 250 241 234 227 220 216 213 213 213 211 208 207 207 207 208 209 210 213 213 211 213 215 211
262 257 256 256 257 259 261 262 265 268 267 265 263 261 260 260 259 259 259 257 254 252 250 247 246 245 243 243 244 245 247 249 250 252 256 259 261 262 265 270 277 280 284 288 286 282 282 283 283 282 280 278 275 273 271 269 268 269 269 269 268 265 263 259 255 252 246 237 230 224 218 214 212 212 212 208 206 207 208 208 208 208 210 211 210 210 212 208
265 259 254 253 253 255 257 258 261 264 264 264 265 261 258 257 257 257 257 256 254 253 252 249 247 246 245 246 247 248 249 250 252 254 258 260 261 263 264 268 272 277 282 285 282 280 281 283 282 282 280 278 276 273 270 268 266 267 267 268 268 265 264 261 256 252 248 240 232 225 220 214 211 211 212 209 206 207 208 208 207 207 208 209 208 208 210 206
265 261 255 251 251 252 254 255 257 259 260 261 262 262 259 258 257 255 255 256 255 254 254 252 251 250 249 250 251 252 253 254 256 257 258 260 262 264 266 268 270 273 279 282 280 278 280 282 281 281 280 278 277 274 270 268 266 266 267 267 268 267 264 261 256 251 248 244 236 228 222 216 211 210 212 211 207 207 208 207 207 208 209 209 207 207 209 207
264 262 257 252 250 250 251 252 253 254 256 256 259 262 261 259 257 256 255 256 256 256 255 254 254 254 253 253 255 255 257 258 259 260 260 262 264 264 266 268 270 271 274 276 275 276 279 280 280 279 277 277 278 277 274 271 268 266 266 266 266 267 265 262 258 252 248 245 240 232 226 220 212 209 211 212 209 207 209 208 208 209 210 210 209 207 208 208
263 262 259 253 250 248 249 250 250 250 252 253 255 259 260 260 260 258 256 255 257 257 256 256 256 256 256 256 257 257 259 261 262 262 262 262 263 263 264 266 268 270 272 272 272 274 277 278 277 276 275 277 280 280 278 276 272 266 265 265 265 266 266 264 261 256 250 246 240 233 226 221 214 209 210 212 210 208 210 210 209 210 210 211 211 209 209 209